STARLINK-36505, 67463

Orbit data source: Space-Track

STARLINK-36505, 67463 is a payload satellite owned by SpaceX/Seattle (US) in LEO that was launched on Wed, 14 Jan 2026 UTC via an FALCON 9 launch vehicle from the Air Force Eastern Test Range (AFETR). Payload-class satellites include a variety of spacecraft equipped with specific instruments for various scientific and technological missions. These include communications satellites like Starlink; space stations such as the ISS; scientific satellites like the Hubble; Earth observation satellites from companies like Planet Labs, Umbra, and HawkEye 360; GPS; miniature CubeSats for education and research; and military/defense satellites.

Loading next visibility...
Identifier
67463, 2026-008U
Orbit
LEO
Country
Flag of USUS
Related business
Manufacturer
SpaceX/Seattle
Mission
Operational spacecraft
Bus & Motor
STARLINK V2MO, Unknown motor
Mass
575 kg wet, ~530 kg dry
Launch date (UTC)
2026-01-14 (2 months ago)
Launch vehicle
FALCON 9
Launch site
Air Force Eastern Test Range (AFETR)
Object type
Payload
Rocket body
Debris
Shape & HBR
Unknown shape, 17.7 m
Radar Cross Section
RCS unknown

Expand to show TLE details & history
Last TLE update: 20 hours ago

TLE from 20 hours ago
0 STARLINK-36505
1 67463U 26008U   26062.54536854  .00042632  00000-0  15510-2 0  9999
2 67463  42.9959 239.8191 0001146 191.5799 168.5026 15.27555487  8636
Epoch: 2026-03-03T13:05Z
TLE epoch observation values (Epoch: 2026-03-03T13:05:19.841Z)
Latitude
-0.00006°
Longitude
-117.83652°
Altitude
483.668 km
Speed
7.625 km/s
True Right ascension
15h 59m 16s
True Declination
0° 00' 00"
Sunlit
Object was in daylight at epoch
Visualization orbit readout
Latitude
Unknown
Longitude
Unknown
Altitude
Unknown
Speed
Unknown
Apparent Right ascension
Unknown
Apparent Declination
Unknown
Sunlit
N/A
Visualization observer readout
Local Sidereal Time
12:50:50
Azimuth
Unknown
Elevation
Unknown
Doppler factor
Unknown
Orbital elements
Apogee altitude
485.855 km
Perigee altitude
484.282 km
Semi-major axis
6,863.205 km
Eccentricity
0.00011
Inclination
42.9959°
RAAN
239.8191°
Arg. of periapsis
191.5799°
True anomaly
168.50522°
Mean anomaly
168.5026°
Eccentric anomaly
168.50391°
Mean motion
3.81727 °/min
Orbital period
94.31 mins
BSTAR
0.001551
Loading maneuver chart data...
Computing Atmospheric mass density...
Loading historical data...
Loading historical data...
Loading historical data...
Loading historical data...
Loading historical data...
Loading historical data...
Loading historical data...

Documentation

Showing up to 5 results
|